Home   Weather   Weimar   Past weeks

Flag for Germany Past Weather in Weimar, Thuringia, Germany — Yesterday and Last 2 Weeks

Now
55 °F

Clear.


Feels Like: 55 °F
Forecast: 54 / 77 °F
Wind: 2 mph from North

Location: Erfurt-Bindersleben

Current Time: Aug 31, 2016 at 6:23:16 AM

Latest Report: Aug 31, 2016 at 5:50 AM


Visibility: 10 mi

Pressure: 30.24 "Hg

Humidity: 67%

Dew Point: 45 °F

Location of WeimarLocation

Past Weather in Weimar — Graph

°F

Weimar Temperature Yesterday

Maximum temperature yesterday: 72 °F (at 4:20 PM)
Minimum temperature yesterday: 52 °F (at 6:50 AM)
Average temperature yesterday: 62 °F

High & Low Weather Summary for the Past Weeks

 TemperatureHumidityPressure
High93 °F (Aug 26, 4:20 PM)100% (Aug 18, 6:20 AM)30.36 "Hg (Aug 18, 6:20 AM)
Low43 °F (Aug 18, 6:20 AM)17% (Aug 25, 2:20 PM)29.80 "Hg (Aug 18, 4:50 PM)
Average68 °F62%30.09 "Hg
* Reported Aug 16 5:20 AM — Aug 31 5:20 AM, Weimar, Weather by CustomWeather, © 2016

Note: Actual official high and low records may vary slightly from our data, if they occured in-between our weather recording intervals... More about our weather records

Advertising

Weimar Weather History for the Previous 24 Hours

Scroll right to see more
 ConditionsComfort  
Time TempWeatherWind HumidityBarometerVisibility
5:20 AM
Wed, Aug 31
55 °FClear.2 mph67%30.24 "Hg10 mi
4:50 AM54 °FClear.2 mph67%30.24 "Hg10 mi
4:20 AM55 °FClear.2 mph63%30.24 "Hg10 mi
3:50 AM55 °FClear.5 mph63%30.24 "Hg10 mi
3:20 AM55 °FClear.3 mph63%30.24 "Hg10 mi
2:50 AM54 °FClear.6 mph67%30.27 "Hg10 mi
2:20 AM55 °FClear.7 mph63%30.27 "Hg10 mi
1:50 AM55 °FClear.7 mph63%30.27 "Hg10 mi
1:20 AM55 °FClear.7 mph67%30.27 "Hg10 mi
12:50 AM55 °FClear.7 mph67%30.27 "Hg10 mi
12:20 AM55 °FClear.7 mph67%30.27 "Hg10 mi
11:50 PM
Tue, Aug 30
59 °FPassing clouds.6 mph59%30.27 "HgN/A
11:20 PM59 °FClear.6 mph59%30.27 "Hg10 mi
10:50 PM61 °FPassing clouds.5 mph55%30.27 "HgN/A
10:20 PM59 °FClear.6 mph59%30.27 "Hg10 mi
9:50 PM63 °FClear.6 mph52%30.27 "Hg10 mi
9:20 PM63 °FClear.6 mph52%30.27 "Hg10 mi
8:50 PM64 °FSunny.6 mph49%30.27 "Hg10 mi
8:20 PM64 °FSunny.6 mph49%30.27 "Hg10 mi
7:50 PM66 °FSunny.6 mph46%30.27 "Hg10 mi
7:20 PM68 °FSunny.7 mph43%30.27 "Hg10 mi
6:50 PM68 °FSunny.8 mph43%30.27 "Hg10 mi
6:20 PM70 °FPassing clouds.8 mph40%30.27 "HgN/A
5:50 PM70 °FPassing clouds.7 mph38%30.27 "HgN/A
5:20 PM70 °FPassing clouds.6 mph40%30.27 "HgN/A
4:50 PM72 °FPassing clouds.7 mph36%30.27 "HgN/A
4:20 PM72 °FPassing clouds.5 mph36%30.30 "HgN/A
3:50 PM70 °FSunny.3 mph38%30.30 "Hg10 mi
3:20 PM70 °FPassing clouds.7 mph40%30.30 "HgN/A
2:50 PM70 °FPassing clouds.5 mph38%30.30 "HgN/A
2:20 PM68 °FSunny.6 mph43%30.30 "Hg10 mi
1:50 PM68 °FSunny.5 mph43%30.33 "Hg10 mi
1:20 PM66 °FPassing clouds.6 mph46%30.33 "HgN/A
12:50 PM66 °FSunny.6 mph46%30.33 "Hg10 mi
12:20 PM66 °FScattered clouds.3 mph46%30.33 "HgN/A
11:50 AM64 °FScattered clouds.5 mph56%30.33 "HgN/A
11:20 AM63 °FPartly sunny.6 mph56%30.33 "HgN/A
10:50 AM63 °FPartly sunny.5 mph59%30.33 "HgN/A
10:20 AM61 °FPartly sunny.6 mph68%30.33 "HgN/A
9:50 AM59 °FPartly sunny.6 mph72%30.33 "HgN/A
9:20 AM59 °FPartly sunny.5 mph77%30.33 "HgN/A
8:50 AM59 °FPartly sunny.3 mph77%30.30 "HgN/A
8:20 AM55 °FSunny.3 mph88%30.30 "Hg10 mi
7:50 AM54 °FSunny.2 mph94%30.30 "Hg10 mi
7:20 AM54 °FClear.1 mph88%30.30 "Hg10 mi
6:50 AM52 °FClear.No wind94%30.27 "Hg10 mi
6:20 AM54 °FClear.No wind88%30.27 "Hg10 mi
Weather by CustomWeather, © 2016

See weather overviewHow to use our weather pages